Regional Weather Roundup
Issued by NWS

Home | Current Version | Previous Version | Graphics & Text | Print | Product List | Glossary On
Versions: 1 2 3 4 5 6 7 8 9 10 11 12 13 14 15 16 17 18 19 20 21 22 23 24 25 26 27 28 29 30 31 32 33 34 35 36 37 38 39 40 41 42 43 44 45 46 47 48 49 50
000
ASUS43 KMPX 230201
RWRMN
WEATHER ROUNDUP FOR MINNESOTA
NATIONAL WEATHER SERVICE TWIN CITIES/CHANHASSEN MN
900 PM CDT WED OCT 22 2014


NOTE: "FAIR" INDICATES FEW OR NO CLOUDS BELOW 12,000 FEET WITH NO
SIGNIFICANT WEATHER AND/OR OBSTRUCTIONS TO VISIBILITY. N/A MEANS
CURRENT SKY AND/OR WEATHER CONDITIONS ARE NOT AVAILABLE.

MNZ060>063-068>070-230300-
   Twin Cities Metro

CITY           SKY/WX    TMP DP  RH WIND       PRES   REMARKS
TWIN CITIES    CLOUDY    56  40  55 S12       30.05S
ST PAUL        CLOUDY    55  41  59 S9        30.06S
CRYSTAL        MOCLDY    58  40  51 S12G22    30.03F
BLAINE         CLOUDY    57  43  58 S12G21    30.04R
LAKEVILLE      MOCLDY    54  41  62 S7        30.05R
EDEN PRAIRIE   MOCLDY    57  41  55 S12       30.04F
SOUTH ST PAUL  MOCLDY    56  40  54 S5        30.06R
LAKE ELMO      FAIR      55  41  58 S14       30.06F
$$
MNZ001>005-007-008-013>017-022>024-027-028-230300-
   Northwest Minnesota

CITY           SKY/WX    TMP DP  RH WIND       PRES   REMARKS
BEMIDJI        DRIZZLE   56  44  65 S10       29.92R
HALLOCK        CLOUDY    54  52  94 S9        29.81S
ROSEAU         DRIZZLE   54  48  82 S13       29.84R
WARROAD        DRIZZLE   57  50  77 S9G16     29.85R
THIEF RVR FALL CLOUDY    55  52  88 S9        29.87R
CROOKSTON      CLOUDY    54  54 100 S8        29.87S
FOSSTON        LGT RAIN  52  52 100 S12       29.90R
DETROIT LAKES  LGT RAIN  54  54 100 SW7       29.93R
MOORHEAD       CLOUDY    55  55 100 SW5       29.91S
PARK RAPIDS    LGT RAIN  54  47  77 S10       29.93R
MAHNOMEN       RAIN      54  52  94 S7        29.90R
$$
MNZ006-009>011-018-025>026-230300-
   North Central Minnesota

CITY           SKY/WX    TMP DP  RH WIND       PRES   REMARKS
BAUDETTE       CLOUDY    56  43  61 S10       29.88S
FLAG ISLAND    CLOUDY    52  46  82 S21       29.82S
INTL FALLS     CLOUDY    55  41  59 S7        29.94S
WASKISH        CLOUDY    55  45  67 SE10G18   29.90S
BIG FORK       CLOUDY    54  41  62 S12G20    29.96F
LONGVILLE      CLOUDY    54  43  66 SE12      29.95F
GRAND RAPIDS   CLOUDY    52  39  62 SE18      29.99S
CRANE LAKE     MOCLDY    50  37  62 SE7       30.01S
ORR            MOCLDY    52  37  58 SE12      29.96F
COOK           CLOUDY    52  39  62 S8        30.01S
WALKER         CLOUDY    55  42  62 S12G23    29.93S
$$
MNZ012-019>021-037-230300-
   Northeast Minnesota

CITY           SKY/WX    TMP DP  RH WIND       PRES   REMARKS
DULUTH         FAIR      52  35  52 S10       30.05S
ELY            CLEAR     45  34  65 S6        30.03S
HIBBING        CLOUDY    52  37  56 S10       30.02S
EVELETH        MOCLDY    50  37  62 S7        30.04S
DULUTH HARBOR  PTCLDY    52  46  82 N5        30.06S
TWO HARBORS    PTCLDY    48  30  49 E5        30.05S
SILVER BAY     PTCLDY    46  39  76 N3        30.05F
GRAND MARAIS     N/A     50  37  61 NE9       30.09F
G MARAIS ARPRT CLOUDY    45  30  57 SE5       30.09S
$$
MNZ029>031-032-039>041-046>048-054>057-064-230300-
   West Central Minnesota

CITY           SKY/WX    TMP DP  RH WIND       PRES   REMARKS
FERGUS FALLS   CLOUDY    55  54  94 W6        29.93S
WHEATON        CLOUDY    54  52  94 W6        29.95R
MORRIS         CLOUDY    57  55  94 SW7       29.93R FOG
ALEXANDRIA     RAIN      54  51  90 S13       29.94F FOG
ELBOW LAKE     CLOUDY    56  55  97 SW9       29.93R
WADENA         RAIN      54  50  87 S8        29.93F
GLENWOOD       DRIZZLE   55  52  88 S12       29.95S
APPLETON       CLOUDY    61  55  82 SW8       29.94R
BENSON         RAIN      57  57 100 SW7       29.94S
ORTONVILLE     CLOUDY    55  54  94 W7        29.94R
MADISON        CLOUDY    61  57  88 W7        29.95S
WILLMAR        DRIZZLE   59  46  63 S6        29.98R
$$
MNZ033>034-036-042>043-049>051-058-059-230300-
   Central Minnesota

CITY           SKY/WX    TMP DP  RH WIND       PRES   REMARKS
ST CLOUD       PTCLDY    58  42  55 SE15      29.99F
SAUK CENTRE    LGT RAIN  55  49  81 S7        29.96S
PAYNESVILLE    CLOUDY    56  44  62 E12       29.97F
AITKIN         CLOUDY    55  43  62 SE12G17   29.98F
PINE RIVER     CLOUDY    55  45  67 SE13G20   29.99S
BRAINERD       CLOUDY    54  42  64 S10G22    29.98F
STAPLES        LGT RAIN  55  45  67 S9G16     29.94S
LONG PRAIRIE   RAIN      54  46  76 SE13      29.96S
LITTLE FALLS   CLOUDY    55  41  58 SE12G17   29.97F
LITCHFIELD     CLOUDY    61  45  55 SE7       29.99F
BUFFALO        PTCLDY    56  41  57 SE8       30.03S
MAPLE LAKE     PTCLDY    56  45  65 SE8       30.02S
$$
MNZ037-044-045-052-053-230300-
   East Central Minnesota

CITY           SKY/WX    TMP DP  RH WIND       PRES   REMARKS
PRINCETON      FAIR      57  43  58 SE9       30.03S
MORA           CLOUDY    50  37  62 SE3       30.05S
CAMBRIDGE      CLOUDY    57  43  58 SE8       30.02F
RUSH CITY      CLOUDY    54  39  58 SE8       30.05F
MOOSE LAKE     CLOUDY    50  37  62 S5        30.02F
HINCKLEY       FAIR      54  39  58 SE8       30.05S
CLOQUET        MOCLDY    50  37  62 SE5       30.04F
MCGREGOR       CLOUDY    52  41  66 S12       30.02S
$$
MNZ071>073-080-081-089-090-097-098-230300-
   Southwest Minnesota

CITY           SKY/WX    TMP DP  RH WIND       PRES   REMARKS
MONTEVIDEO     RAIN      59  57  94 W5        29.96R
GRANITE FALLS  RAIN      58  57  97 S6        29.98R
CANBY          CLOUDY    57  55  91 W9        29.97S
MARSHALL       CLOUDY    59  55  88 SW6       29.96S
REDWOOD FALLS  LGT RAIN  61  49  64 S16       29.98R
OLIVIA         LGT RAIN  59  46  63 S10       29.97R
PIPESTONE      CLOUDY    57  55  94 W9        30.00R
WINDOM         DRIZZLE   61  48  63 S12G21    30.00S
WORTHINGTON    CLOUDY    57  55  94 S12       30.02S
JACKSON        RAIN      61  46  59 S14G21    30.03F
TRACY          CLOUDY    60  58  94 S9        29.98S
SLAYTON        CLOUDY    58  57  99 S9        30.00S
$$
MNZ065>067-074>077-082>085-091>093-230300-
   South Central Minnesota

CITY           SKY/WX    TMP DP  RH WIND       PRES   REMARKS
MANKATO        CLOUDY    57  39  51 S15       30.05R
NEW ULM        CLOUDY    59  46  63 S20       30.00F
ST JAMES       CLOUDY    61  46  59 S14       30.05R
FAIRMONT       CLOUDY    57  43  58 S15G21    30.06R
GLENCOE        MOCLDY    58  45  61 SE10G17   30.01F
FARIBAULT      MOCLDY    55  41  58 SE12G25   30.05S
OWATONNA       MOCLDY    55  39  54 SE20G28   30.04F
WASECA         MOCLDY    54  36  50 S15       30.07R
ALBERT LEA     CLOUDY    55  43  62 S13G20    30.07F
$$
MNZ078>079-086>088-094>096-230300-
   Southeast Minnesota

CITY           SKY/WX    TMP DP  RH WIND       PRES   REMARKS
ROCHESTER      CLOUDY    53  38  56 S15G25    30.11F
STANTON        CLOUDY    57  40  52 S14G22    30.04F
DODGE CENTER   CLOUDY    55  39  54 S20G25    30.08F
WINONA         PTCLDY    54  39  58 SE7       30.15S
AUSTIN         CLOUDY    54  39  58 S10G18    30.10S
PRESTON        CLOUDY    52  37  57 SE13G18   30.14F
$$
ABBREVIATIONS USED IN REMARKS
   TC - TEMPERATURES IN CELSIUS
  WCI - WIND CHILL INDEX
   HX - HEAT INDEX
  VSB - VISIBILITY
$$



USA.gov is the U.S. government's official web portal to all federal, state and local government web resources and services.